Meteo Giornale » Osservazioni meteo Montenegro » Tivat

ore: 12:00 - Osservazioni Meteo Tivat
Lat. 42° 24' N Lon. 18° 44' E Alt. 5 metri s.l.m.

nuvoloso Europe/Podgorica

15 °C

Nuvoloso

Temp. 24 Ore

13 °C

18 °C

Nord

3.7 Km/h

Dew point 12 °C

Umidità 82 %

Visibilità  10 Km

Il sole sorge alle ore 07:08

Il sole tramonta alle ore 17:49

Data e Ora Cielo e Fenomeni T °C DP °C Um. % Pres. hPa Vis. km Vento km/h
Oggi h: 12:00 nuvoloso Nuvoloso 15 12 82 1015 10 N 3.7
Oggi h: 11:30 coperto_pioggia Pioggia Debole 14 13 93 1015 10 O/SO 7.4
Oggi h: 11:00 coperto_pioggia Pioggia Debole Temporale nelle Vicinanze 14 13 93 1015 10 N 1.8
Oggi h: 10:30 nuvoloso_temporali Temporale nelle Vicinanze 13 12 93 1014 10 N 3.7
Oggi h: 10:00 nuvoloso_temporali Temporale nelle Vicinanze 13 12 93 1014 10 N 1.8
Oggi h: 09:30 coperto_pioggia Pioggia Debole Temporale nelle Vicinanze 13 12 93 1014 10 S 7.4
Oggi h: 09:00 coperto_pioggia Pioggia Debole Temporale nelle Vicinanze 13 12 93 1014 10 SE 7.4
Oggi h: 08:30 coperto_pioggia Pioggia Temporale nelle Vicinanze 13 13 100 1014 10 N 5.5
Oggi h: 08:00 coperto_pioggia Pioggia Temporale nelle Vicinanze 13 13 100 1014 10 N 1.8
Oggi h: 07:30 coperto_pioggia Pioggia Temporale nelle Vicinanze 13 13 100 1014 10 E/SE 9.3
Oggi h: 07:00 coperto_pioggia Pioggia Temporale nelle Vicinanze 13 13 100 1014 6 N 0
Oggi h: 05:00 coperto_pioggia Pioggia Debole 14 13 93 1014 10 N 1.8
Oggi h: 04:30 coperto_pioggia Pioggia Debole 14 13 93 1014 10 N 0
Oggi h: 04:00 coperto_pioggia Pioggia Debole 14 13 93 1014 10 N 1.8
Oggi h: 03:30 nuvoloso Nuvoloso 14 13 93 1014 10 N 1.8
Oggi h: 03:00 nuvoloso Nuvoloso 14 13 93 1015 10 N 3.7
Oggi h: 02:30 molto_nuvoloso Molto Nuvoloso 14 13 93 1015 10 N 3.7
Oggi h: 02:00 molto_nuvoloso Molto Nuvoloso 14 13 93 1015 10 N 3.7
Oggi h: 01:30 molto_nuvoloso Molto Nuvoloso 14 13 93 1015 10 N 1.8
Oggi h: 01:00 molto_nuvoloso Molto Nuvoloso 14 13 93 1016 10 N 0
Oggi h: 00:30 coperto_pioggia Pioggia Debole 14 13 93 1016 10 N 5.5
Ieri h: 23:30 coperto_pioggia Pioggia Debole 14 13 93 1016 10 N 3.7
Ieri h: 23:00 coperto_pioggia Pioggia Debole 14 13 93 1016 10 N 3.7
Ieri h: 22:30 coperto_pioggia Pioggia Debole 14 13 93 1016 10 N 0
Ieri h: 22:00 coperto_pioggia Pioggia Debole 14 13 93 1015 10 N 3.7
Ieri h: 21:30 coperto Coperto 15 13 87 1015 10 N 3.7
Ieri h: 21:00 coperto_pioggia Pioggia Debole 15 13 87 1016 10 N 5.5
Ieri h: 20:30 molto_nuvoloso Molto Nuvoloso 15 13 87 1017 10 N 0
Ieri h: 20:00 nuvoloso Nuvoloso 15 13 87 1017 10 N 3.7
Ieri h: 19:30 nuvoloso Nuvoloso 15 13 87 1017 10 N 1.8
Ieri h: 19:00 nuvoloso Nuvoloso 15 12 82 1017 10 N 3.7
Ieri h: 18:00 nuvoloso Nuvoloso 16 13 82 1017 10 N 0
Ieri h: 17:30 poco_nuvoloso Poco Nuvoloso 17 12 72 1017 10 N 1.8
Ieri h: 16:30 sereno Sereno 17 12 72 1017 10 N 3.7
Ieri h: 16:00 sereno Sereno 18 12 67 1017 10 N 3.7
Ieri h: 15:30 sereno Sereno 18 12 67 1017 10 N 3.7
Ieri h: 15:00 sereno Sereno 17 10 63 1017 10 N 3.7
Ieri h: 14:30 sereno Sereno 17 11 67 1017 10 N 3.7
Ieri h: 14:00 sereno Sereno 17 10 63 1017 10 N 1.8
Ieri h: 13:30 sereno Sereno 17 11 67 1017 10 N 1.8
Ieri h: 13:00 sereno Sereno 17 11 67 1018 10 N 3.7
Ieri h: 12:30 sereno Sereno 16 11 72 1018 10 N 3.7
Ieri h: 12:00 sereno Sereno 16 10 67 1018 10 N 1.8